Rome Ciampino, Italy

7:04 AM CEST on July 28, 2017 (GMT +0200)
Ciampino

Weather History for LIRA - May, 2014

Change the Weather History Date:

Thursday, May 8, 2014

  Actual Average Record
Temperature  
Mean Temperature 62 °F -  
Max Temperature 71 °F 75 °F 84 °F (2003)
Min Temperature 52 °F 54 °F 50 °F (1997)
Degree Days  
Heating Degree Days 4    
Growing Degree Days 12 (Base 50)    
Moisture  
Dew Point 49 °F    
Average Humidity 61    
Maximum Humidity 82    
Minimum Humidity 33    
Precipitation  
Precipitation 0.00 in 0.06 in - ()
Sea Level Pressure  
Sea Level Pressure 30.03 in    
Wind  
Wind Speed 3 mph ()    
Max Wind Speed 9 mph    
Max Gust Speed -    
Visibility 6.8 miles    
Events      
Averages and records for this station are not official NWS values.
T = Trace of Precipitation, MM = Missing Value Source: Averaged Metar Reports

Daily Weather History Graph

Daily Weather History Graph

Search for Another Location

Airport or City:

Trip Planner

Search our weather history database for the weather conditions in past years. The results will help you decide how hot, cold, wet, or windy it might be!

Date:

Astronomy

May. 08, 2014 Rise Set
Actual Time 5:57 AM CEST 8:15 PM CEST
Civil Twilight 5:26 AM CEST 8:46 PM CEST
Nautical Twilight 4:48 AM CEST 9:25 PM CEST
Astronomical Twilight 4:06 AM CEST 10:07 PM CEST
Moon 1:54 PM CEST (5/8) 2:25 AM CEST (5/8)
Length of Visible Light 15h 19m
Length of Day
14h 17m
Waxing Gibbous, 62% of the Moon is Illuminated
May 8
Waxing Gibbous
May 14
Full
May 21
Last Quarter
May 28
New
Jun 5
First Quarter

Hourly Weather History & Observations

Time (CEST) Temp. Dew Point Humidity Pressure Visibility Wind Dir Wind Speed Gust Speed Precip Events Conditions
12:15 AM 53.6 °F 44.6 °F 72% 30.06 in 6.2 mi ESE 2.3 mph - N/A   Scattered Clouds
12:45 AM 53.6 °F 42.8 °F 67% 30.06 in 6.2 mi ESE 2.3 mph - N/A   Scattered Clouds
1:15 AM 55.4 °F 42.8 °F 63% 30.06 in 6.2 mi Calm Calm - N/A   Scattered Clouds
1:45 AM 55.4 °F 41.0 °F 58% 30.06 in 6.2 mi SSE 2.3 mph - N/A   Scattered Clouds
2:00 AM 55 °F 40 °F 46% 30.07 in 6 mi SSE 2.3 mph - -   Partly Cloudy
2:15 AM 55.4 °F 39.2 °F 54% 30.04 in 6.2 mi East 1.2 mph - N/A   Scattered Clouds
2:45 AM 55.4 °F 39.2 °F 54% 30.04 in 6.2 mi SSE 2.3 mph - N/A   Scattered Clouds
3:15 AM 55.4 °F 42.8 °F 63% 30.04 in 6.2 mi SE 3.5 mph - N/A   Scattered Clouds
3:45 AM 55.4 °F 42.8 °F 63% 30.04 in 6.2 mi Calm Calm - N/A   Scattered Clouds
4:15 AM 53.6 °F 44.6 °F 72% 30.04 in 6.2 mi Calm Calm - N/A   Scattered Clouds
4:45 AM 53.6 °F 46.4 °F 77% 30.04 in 6.2 mi ESE 3.5 mph - N/A   Scattered Clouds
5:00 AM 54 °F 47 °F 68% 30.06 in 7 mi North 3.5 mph - -   Partly Cloudy
5:15 AM 53.6 °F 46.4 °F 77% 30.04 in 6.2 mi East 2.3 mph - N/A   Scattered Clouds
5:45 AM 53.6 °F 46.4 °F 77% 30.04 in 6.2 mi East 2.3 mph - N/A   Scattered Clouds
6:15 AM 53.6 °F 48.2 °F 82% 30.04 in 6.2 mi Calm Calm - N/A   Scattered Clouds
6:45 AM 53.6 °F 46.4 °F 77% 30.04 in 6.2 mi Calm Calm - N/A   Scattered Clouds
7:15 AM 55.4 °F 50.0 °F 82% 30.04 in 6.2 mi Calm Calm - N/A   Partly Cloudy
7:45 AM 57.2 °F 50.0 °F 77% 30.04 in 6.2 mi NNW 1.2 mph - N/A   Partly Cloudy
8:00 AM 57 °F 50 °F 69% 30.06 in 9 mi NNW 1.2 mph - -   Scattered Clouds
8:15 AM 60.8 °F 50.0 °F 68% 30.04 in 6.2 mi Calm Calm - N/A   Partly Cloudy
9:15 AM 62.6 °F 51.8 °F 68% 30.04 in 6.2 mi NNW 3.5 mph - N/A   Partly Cloudy
9:45 AM 62.6 °F 51.8 °F 68% 30.04 in 6.2 mi NW 2.3 mph - N/A   Partly Cloudy
10:15 AM 64.4 °F 51.8 °F 64% 30.04 in - North 2.3 mph - N/A   Clear
10:45 AM 64.4 °F 48.2 °F 56% 30.04 in 6.2 mi NW 3.5 mph - N/A   Partly Cloudy
11:00 AM 64 °F 49 °F 47% 30.04 in 9 mi NW 3.5 mph - -   Scattered Clouds
11:15 AM 66.2 °F 46.4 °F 49% 30.04 in 6.2 mi NNW 3.5 mph - N/A   Partly Cloudy
11:45 AM 68.0 °F 44.6 °F 43% 30.04 in 6.2 mi NW 3.5 mph - N/A   Partly Cloudy
12:15 PM 68.0 °F 44.6 °F 43% 30.04 in 6.2 mi West 4.6 mph - N/A   Partly Cloudy
12:45 PM 69.8 °F 46.4 °F 43% 30.04 in 6.2 mi West 3.5 mph - N/A   Partly Cloudy
1:15 PM 71.6 °F 46.4 °F 41% 30.04 in 6.2 mi WSW 4.6 mph - N/A   Partly Cloudy
1:45 PM 69.8 °F 48.2 °F 46% 30.04 in 6.2 mi West 6.9 mph - N/A   Partly Cloudy
2:00 PM 70 °F 47 °F 33% 30.04 in 12 mi West 6.9 mph - -   Scattered Clouds
2:15 PM 71.6 °F 50.0 °F 46% 30.04 in 6.2 mi West 6.9 mph - N/A   Partly Cloudy
2:45 PM 71.6 °F 50.0 °F 46% 30.04 in 6.2 mi West 6.9 mph - N/A   Partly Cloudy
3:15 PM 69.8 °F 51.8 °F 53% 30.04 in 6.2 mi West 9.2 mph - N/A   Partly Cloudy
3:45 PM 69.8 °F 51.8 °F 53% 30.01 in 6.2 mi West 8.1 mph - N/A   Partly Cloudy
4:15 PM 69.8 °F 53.6 °F 56% 30.01 in 6.2 mi West 8.1 mph - N/A   Partly Cloudy
4:45 PM 69.8 °F 53.6 °F 56% 30.01 in 6.2 mi West 8.1 mph - N/A   Partly Cloudy
5:00 PM 71 °F 53 °F 42% 30.01 in 12 mi West 8.1 mph - -   Scattered Clouds
5:15 PM 71.6 °F 50.0 °F 46% 30.01 in 6.2 mi West 8.1 mph - N/A   Partly Cloudy
5:45 PM 69.8 °F 53.6 °F 56% 30.01 in 6.2 mi WSW 6.9 mph - N/A   Partly Cloudy
6:15 PM 68.0 °F 51.8 °F 56% 30.01 in 6.2 mi WSW 6.9 mph - N/A   Partly Cloudy
6:45 PM 66.2 °F 51.8 °F 60% 30.01 in - WSW 6.9 mph - N/A   Clear
7:15 PM 64.4 °F 53.6 °F 68% 30.01 in - WSW 6.9 mph - N/A   Clear
7:45 PM 62.6 °F 51.8 °F 68% 30.01 in - SW 6.9 mph - N/A   Clear
8:00 PM 63 °F 52 °F 57% 30.02 in 12 mi SW 6.9 mph - -   Clear
8:15 PM 62.6 °F 50.0 °F 63% 30.01 in - South 5.8 mph - N/A   Clear
8:45 PM 60.8 °F 51.8 °F 72% 30.01 in - South 5.8 mph - N/A   Clear
9:15 PM 60.8 °F 51.8 °F 72% 30.01 in - South 4.6 mph - N/A   Clear
9:45 PM 60.8 °F 51.8 °F 72% 30.01 in - SSE 2.3 mph - N/A   Clear
10:15 PM 60.8 °F 51.8 °F 72% 30.01 in - SSW 3.5 mph - N/A   Clear
10:45 PM 59.0 °F 51.8 °F 77% 30.01 in 6.2 mi SSE 2.3 mph - N/A   Partly Cloudy
11:00 PM 59 °F 52 °F 69% 30.02 in 9 mi SSE 2.3 mph - -   Scattered Clouds
11:15 PM 59.0 °F 51.8 °F 77% 30.01 in 6.2 mi South 2.3 mph - N/A   Partly Cloudy
11:45 PM 57.2 °F 50.0 °F 77% 30.01 in - East 2.3 mph - N/A   Clear